TimeAEST,TemperatureF,Dew PointF,Humidity,Sea Level PressureIn,VisibilityMPH,Wind Direction,Wind SpeedMPH,Gust SpeedMPH,PrecipitationIn,Events,Conditions,WindDirDegrees,DateUTC
12:00 AM,69,61,70,30.03,,South,8.1,,,,,180,2014-01-13 14:00:00
12:00 AM,69.8,60.8,73,30.04,6.2,South,8.1,-,N/A,,Scattered Clouds,180,2014-01-13 14:00:00
1:00 AM,68.0,60.8,78,30.01,6.2,South,8.1,-,N/A,,Unknown,170,2014-01-13 15:00:00
2:00 AM,68.0,60.8,78,29.98,6.2,South,6.9,-,N/A,,Unknown,170,2014-01-13 16:00:00
3:00 AM,67,62,77,29.99,,South,8.1,,,,,180,2014-01-13 17:00:00
3:00 AM,68.0,60.8,78,29.98,6.2,South,8.1,-,N/A,,Unknown,180,2014-01-13 17:00:00
4:00 AM,68.0,62.6,83,29.98,6.2,South,6.9,-,N/A,,Unknown,170,2014-01-13 18:00:00
5:00 AM,66.2,60.8,83,30.01,6.2,SSE,5.8,-,N/A,,Unknown,160,2014-01-13 19:00:00
6:00 AM,68,62,76,30.03,,South,5.8,,,,,180,2014-01-13 20:00:00
6:00 AM,68.0,62.6,83,30.01,6.2,South,5.8,-,N/A,,Unknown,170,2014-01-13 20:00:00
7:00 AM,73.4,62.6,69,30.04,6.2,SSE,11.5,-,N/A,,Unknown,150,2014-01-13 21:00:00
8:00 AM,78.8,62.6,57,30.04,6.2,SE,17.3,-,N/A,,Unknown,130,2014-01-13 22:00:00
9:00 AM,81,60,39,30.06,,ESE,19.6,,,,,110,2014-01-13 23:00:00
9:00 AM,80.6,60.8,51,30.04,6.2,ESE,19.6,-,N/A,,Scattered Clouds,110,2014-01-13 23:00:00
10:00 AM,82.4,60.8,48,30.04,6.2,ESE,18.4,-,N/A,,Mostly Cloudy,110,2014-01-14 00:00:00
11:00 AM,84.2,60.8,45,30.04,6.2,ESE,17.3,-,N/A,,Unknown,110,2014-01-14 01:00:00
12:00 PM,85,60,32,30.03,,ESE,19.6,,,,,110,2014-01-14 02:00:00
12:00 PM,86.0,59.0,40,30.04,6.2,ESE,19.6,-,N/A,,Mostly Cloudy,110,2014-01-14 02:00:00
1:00 PM,84.2,60.8,45,30.01,6.2,East,18.4,-,N/A,,Overcast,90,2014-01-14 03:00:00
2:00 PM,86.0,59.0,40,30.01,6.2,East,17.3,-,N/A,,Unknown,100,2014-01-14 04:00:00
3:00 PM,86,62,34,30.01,,ESE,19.6,,,,,110,2014-01-14 05:00:00
3:00 PM,86.0,60.8,43,30.01,6.2,ESE,19.6,-,N/A,,Unknown,110,2014-01-14 05:00:00
4:00 PM,84.2,62.6,48,30.01,6.2,East,21.9,-,N/A,,Scattered Clouds,100,2014-01-14 06:00:00
5:00 PM,80.6,64.4,58,30.01,6.2,East,20.7,-,N/A,,Unknown,100,2014-01-14 07:00:00
6:00 PM,79,64,50,30.04,,ESE,19.6,,,,,110,2014-01-14 08:00:00
6:00 PM,78.8,64.4,61,30.04,6.2,ESE,19.6,-,N/A,,Unknown,110,2014-01-14 08:00:00
7:00 PM,77.0,62.6,61,30.06,6.2,ESE,15.0,-,N/A,,Unknown,110,2014-01-14 09:00:00
8:00 PM,75.2,62.6,65,30.06,6.2,SE,12.7,-,N/A,,Unknown,130,2014-01-14 10:00:00
9:00 PM,73,63,64,30.09,,SE,10.4,,,,,140,2014-01-14 11:00:00
9:00 PM,73.4,62.6,69,30.06,6.2,SE,10.4,-,N/A,,Scattered Clouds,140,2014-01-14 11:00:00
10:00 PM,73.4,64.4,73,30.09,6.2,SSE,8.1,-,N/A,,Scattered Clouds,150,2014-01-14 12:00:00
11:00 PM,71.6,64.4,78,30.09,6.2,SSE,8.1,-,N/A,,Scattered Clouds,150,2014-01-14 13:00:00